Content
SEND FEEDBACK

Daily
Averages
Monthly
Summary
Turkmenistan

ASHGABAT, TURKMENISTAN


Home > Asia > Turkmenistan
Elevation: 236 meters     Latitude: 37 58N     Longitude: 058 20E

WEATHER
 
SELECT A DAY
Number of Records: 181,509;   Date Range: 3/15/97 - 10/30/14
 
SHARE

PRINT THIS DATA

[ ← Previous Day ]
WEATHER ALMANAC - 25 AUGUST, 2013
[ Next Day → ]
[ °F ]   °C
Weather ElementAverageHighLow
Temperature29.2 °C36 °C (2:00 pm)21.7 °C (5:00 am)
Dewpoint7 °C12.2 °C (5:00 am)2 °C (7:00 pm)
Humidity25.5 %47 % (4:00 am)7 % (2:00 pm)
Barometer1009.5 hPa1011.2 hPa (1:00 am)1007.5 hPa (5:00 pm)
Wind Speed17.5 km/h36 km/h (12:00 pm)
Weather ElementAverage
Visibility9.8 km
Wind DirectionESE (113.2 °)

Weather ElementTotal
Precipitation---
Cooling Degree Days10.5 (Base 18.3)
Growing Degree Days18.8 (Base 10)
Averaged from 34 records on 25 August, 2013
WEATHER CONDITIONS BREAKOUT
WIND DIRECTION BREAKOUT
WEATHER BY HOUR - 25 AUGUST, 2013
[ °F ]   °C
Local TimeTemperatureDewpointHumidityBarometerVisibilityWind DirectionWind SpeedGust SpeedPrecipitationEventsConditions
1:00 AM24 °C9 °C38 %1011.2 hPa10 kmESE (120°)10.8 km/hClear
2:00 AM24.4 °C11.1 °C32 %1010.5 hPa9.7 kmSSE (150°)10.8 km/h
2:00 AM25 °C8 °C34 %1010.2 hPa10 kmSSE (150°)10.8 km/hClear
3:00 AM24 °C9 °C38 %1010.2 hPa10 kmCalmClear
4:00 AM23 °C11 °C47 %1010.2 hPa10 kmESE (110°)7.2 km/hClear
4:30 AM23 °C10 °C44 %1010.2 hPa10 kmEast (100°)7.2 km/hClear
5:00 AM21.7 °C12.2 °C44 %1010.2 hPa9.7 kmSouth (190°)3.5 km/h
5:00 AM22 °C10 °C46 %1010.2 hPa6 kmSouth (190°)3.5 km/hClear
5:30 AM23 °C10 °C44 %1010.2 hPa10 kmSSE (150°)7.2 km/hClear
6:00 AM23 °C9 °C41 %1010.2 hPa10 kmSSE (160°)7.2 km/hClear
6:30 AM23 °C9 °C41 %1010.2 hPa10 kmSE (130°)10.8 km/hClear
7:00 AM23 °C9 °C41 %1010.2 hPa10 kmSE (140°)7.2 km/hClear
8:00 AM25 °C11.7 °C32 %1010.2 hPa9.7 kmSE (130°)10.8 km/h
8:00 AM26 °C9 °C34 %1011.2 hPa10 kmSE (130°)10.8 km/hClear
9:00 AM30 °C9 °C27 %1011.2 hPa10 kmESE (110°)14.3 km/hClear
10:00 AM31 °C8 °C24 %1011.2 hPa10 kmEast (100°)28.8 km/hClear
11:00 AM34 °C5 °C16 %1011.2 hPa10 kmEast (90°)32.3 km/h
11:00 AM32.8 °C7.8 °C12 %1010.2 hPa9.7 kmEast (90°)32.3 km/h
12:00 PM34 °C4 °C15 %1010.2 hPa10 kmEast (90°)36 km/hClear
1:00 PM35 °C5 °C15 %1010.2 hPa10 kmEast (100°)32.3 km/hClear
2:00 PM35.6 °C3.9 °C7 %1008.8 hPa9.7 kmEast (90°)36 km/h
2:00 PM36 °C5 °C15 %1009.1 hPa10 kmEast (90°)32.3 km/hClear
3:00 PM36 °C5 °C15 %1009.1 hPa10 kmEast (100°)28.8 km/hClear
4:00 PM36 °C4 °C14 %1008.1 hPa10 kmEast (100°)28.8 km/hClear
5:00 PM36 °C3 °C13 %1008.1 hPa10 kmEast (100°)25.3 km/hClear
5:00 PM35 °C6.7 °C10 %1007.5 hPa9.7 kmEast (100°)25.3 km/h
6:00 PM35 °C3 °C13 %1008.1 hPa10 kmEast (100°)25.3 km/hClear
7:00 PM34 °C2 °C13 %1008.1 hPa10 kmEast (100°)21.6 km/hClear
8:00 PM31.7 °C6.7 °C12 %1007.5 hPa9.7 kmEast (100°)14.3 km/h
8:00 PM32 °C4 °C17 %1008.1 hPa10 kmEast (100°)14.3 km/hClear
9:00 PM30 °C3 °C18 %1008.1 hPa10 kmEast (100°)10.8 km/hClear
10:00 PM30 °C4 °C19 %1008.1 hPa10 kmESE (110°)18 km/hClear
11:00 PM28.3 °C6.7 °C16 %1007.8 hPa9.7 kmESE (120°)14.3 km/h
11:00 PM29 °C4 °C20 %1008.1 hPa10 kmESE (110°)18 km/hClear
Hourly data recorded from UTAA, located 0 kilometers away from Ashgabat, Turkmenistan







STORIES FROM OUR PARTNERS